Вернуться в каталог

STARLINK-35834

АктивенСвязьVLEO
NORAD 66570·PAYLOAD·🇺🇸 United States

Запущен Nov 21, 2025 с Cape Canaveral Space Force Station

Loading…

Ближайшие Пролёты (ближайшие 24 часа)

TLE

СвежийSource: CelesTrak SupGP

Эпоха: Sep 15, 2026, 03:55 UTC

1 66570C 25268P   26258.16368056 -.00012793  00000+0 -46219-3 0  2581
2 66570  43.0021 357.4595 0001780 252.8407  55.8997 15.27666709    11

Отслеживайте STARLINK-35834 в реальном времени с AllMySat

Download on the App Store